STARLINK-36362, 67424

Orbit data source: Space-Track

STARLINK-36362, 67424 is a payload satellite owned by SpaceX/Seattle (US) in LEO that was launched on Mon, 12 Jan 2026 UTC via an FALCON 9 launch vehicle from the Air Force Eastern Test Range (AFETR). Payload-class satellites include a variety of spacecraft equipped with specific instruments for various scientific and technological missions. These include communications satellites like Starlink; space stations such as the ISS; scientific satellites like the Hubble; Earth observation satellites from companies like Planet Labs, Umbra, and HawkEye 360; GPS; miniature CubeSats for education and research; and military/defense satellites.

Loading next visibility...
Identifier
67424, 2026-005W
Orbit
LEO
Country
Flag of USUS
Related business
Manufacturer
SpaceX/Seattle
Mission
Operational Commercial Communications
Bus & Motor
STARLINK V2MO, Unknown motor
Mass
575 kg wet, ~530 kg dry
Launch date (UTC)
2026-01-12 (5 months ago)
Launch vehicle
FALCON 9
Launch site
Air Force Eastern Test Range (AFETR)
Object type
Payload
Rocket body
Debris
Shape & HBR
Box + 2 Pan, 17.7 m
Radar Cross Section
36.964 m², Large (>1 m²)

Expand to show TLE details & history
Last TLE update: 20 hours ago

TLE from 20 hours ago
0 STARLINK-36362
1 67424U 26005W   26171.00330298  .00006947  00000-0  26168-3 0  9990
2 67424  43.0025  20.1999 0001475 277.8780  82.1905 15.27585633 24348
Epoch: 2026-06-20T00:04Z
TLE epoch observation values (Epoch: 2026-06-20T00:04:45.377Z)
Latitude
0.00003°
Longitude
110.7867°
Altitude
482.671 km
Speed
7.626 km/s
True Right ascension
01h 20m 47s
True Declination
0° 00' 00"
Sunlit
Object was in daylight at epoch
Visualization orbit readout
Latitude
Unknown
Longitude
Unknown
Altitude
Unknown
Speed
Unknown
Apparent Right ascension
Unknown
Apparent Declination
Unknown
Sunlit
N/A
Visualization observer readout
Local Sidereal Time
07:12:46
Azimuth
Unknown
Elevation
Unknown
Doppler factor
Unknown
Orbital elements
Apogee altitude
485.989 km
Perigee altitude
483.965 km
Semi-major axis
6,863.114 km
Eccentricity
0.00015
Inclination
43.0025°
RAAN
20.1999°
Arg. of periapsis
277.878°
True anomaly
82.20725°
Mean anomaly
82.1905°
Eccentric anomaly
82.19887°
Mean motion
3.81734 °/min
Orbital period
94.31 mins
BSTAR
0.00026168
Loading maneuver chart data...
Computing Atmospheric mass density...
Loading historical data...
Loading historical data...
Loading historical data...
Loading historical data...
Loading historical data...
Loading historical data...
Loading historical data...

Documentation

Showing up to 5 results
|